Location: *
(33.8649°S, 62.1526°E)
Time: 13:14:54
(UTC+00:00)

Okean 3 - Pass Details

Date: 17 January 2021
Orbit: 575 x 601 km, 82.5° (Epoch: 02 March)

Event Time Altitude Azimuth Distance (km) Brightness Sun altitude
Exits shadow 23:01:09 38° 253° (WSW) 905 4.1 -20.8°
Drops below altitude 10° 23:04:56 10° 191° (S) 1,927 6.5 -20.3°
Sets 23:07:17 0° 182° (S) 2,840 7.6 -19.9°
